Погода в Цыпке

Россия / Краснодарский край     44°09′27″N   39°10′40″E
темп.,
°C
ветер,
м/с
пор.,
м/с
влажн.,
%
обл.,
%
осадки,
мм/ч
давл.,
гПа
погр.,
м
19 апреля, пн
пн1900:00+12юз31395100 0.4 1016588
03:00+11ююз21199100 0.4 1015417
06:00+12юз3699100 6.1 1015355
09:00+13ююз41297100 8.2 1014955
12:00+13юз31097100 1.9 1014908
15:00+13юз2498100 2.6 1014214
18:00+14ююз259598 0.4 1014294
21:00+13ю1194100 0.4 101315
20 апреля, вт
вт2000:00+12в2398100 1.4 101178
03:00+12св3499100 1.6 1008246
06:00+12ссв2399100 0.1 1004179
09:00+13ююз3994100 0.6 1006548
12:00+14юз4887100 0.7 1008687
15:00+13юз4117551 0.9 1010828
18:00+10ююз4118296 0.0 1012795
21:00+8ююз4109651 0.1 1015635
21 апреля, ср
ср2100:00+8ююз389990 0.0 1016496
03:00+8ююз279784 0.1 1016538
06:00+8ююз2498100 0.1 1017218
09:00+11юз247696 0.1 1018660
12:00+12юз2666100 0.0 10191080
15:00+14юз47545 0.0 10191340
18:00+11юз246710 0.0 1020591
21:00+6ююз1193100 0.0 102213
22 апреля, чт
чт2200:00+6юв0086100 0.0 102210
03:00+6всв1182100 0.0 102211
06:00+5всв21843 0.0 102219
09:00+13ссв11591 0.0 1022654
12:00+17ссз1244100 0.0 10211744
15:00+16ссз1252100 0.2 10211339
18:00+12ссв24825 0.9 1022403
21:00+8св22965 0.9 102339
23 апреля, пт
пт2300:00+7св22960 0.0 102333
03:00+6всв11961 0.0 102411
06:00+6в11950 0.0 102412
09:00+13юз117017 0.0 1024735
12:00+16зюз33523 0.0 10231545
15:00+16юз33501 0.0 10221171
18:00+14з116790 0.0 102288
21:00+9всв229090 0.0 102218